Tracking 18980 objects as of 22-Feb-2018
HD Live streaming from Space Station
objects crossing your sky now

FENGYUN 2B

Track FENGYUN 2B now!
FENGYUN 2B is classified as:


NORAD ID: 26382
Int'l Code: 2000-032A
Perigee: 35,812.6 km
Apogee: 35,871.2 km
Inclination: 10.2 °
Period: 1,438.6 minutes
Semi major axis: 42212 km
RCS: 15.8489 m2 (large)
Launch date: June 25, 2000
Source: People's Republic of China (PRC)
Launch site: Xichang Space Center, China (XSC)

Scanning radiometer, a cloud mapper, water vapor scanner to provide timely weather data; provides hoursly full-disk images of Earth in visible and infrared wavelengths.
aabbcc
Your satellite tracking list
Your tracking list is empty




NASA's NSSDC Master Catalog

Two Line Element Set (TLE):
1 26382U 00032A   18052.36518812 +.00000057 +00000-0 +00000-0 0  9998
2 26382 010.2393 038.1986 0006938 257.4026 175.6786 01.00100314064525
Source of the keplerian elements: AFSPC